GAOFEN-12 01

Last updated on Thu Oct 30 2025 00:02:32 GMT+0000 (Coordinated Universal Time)

1 44819U 19082A 25302.47786079 .00000751 00000+0 10459-3 0 9990 2 44819 97.8146 309.9176 0003704 54.8535 305.3024 14.80578988319954
UTC large
Height (km)
Speed (km/s)
/
Latitude / Longitude
Inclination (degrees)
Orbital Period (minutes)
Azimuth
Elevation
Range (km)
Doppler Factor

Next 0 passes for location: London (51.5072 / 0.1276)

Sorry there are no passes over London.